FW9534 Weather Reports


time (UTC)temp
C
wind
direction
speed
KPH
gust
KPH
rain 1hr
cm
rain 24hr
cm
rain mn
cm
humidity
%
barometer
mb
20260507130038 4 294 1.6 11.3 0.00 0.13 0.03 92 1012.4
20260507124538 3 0 0.0 4.8 0.00 0.18 0.03 92 1012.4
20260507123036 3 20 0.0 3.2 0.00 0.18 0.03 91 1012.3
20260507121540 3 355 0.0 6.4 0.00 0.18 0.03 91 1012.2
20260507120039 4 360 0.0 1.6 0.00 0.18 0.03 91 1012.1
20260507114538 3 0 0.0 0.0 0.00 0.25 0.03 92 1012.0
20260507113040 3 0 0.0 0.0 0.00 0.25 0.03 92 1011.9
20260507111541 2 0 0.0 0.0 0.00 0.25 0.03 93 1011.9
20260507110037 2 0 0.0 0.0 0.00 0.25 0.03 92 1011.7
20260507104541 2 0 0.0 3.2 0.00 0.38 0.03 92 1011.4
20260507103039 1 0 0.0 3.2 0.00 0.38 0.03 93 1011.5
20260507101557 1 199 1.6 4.8 0.00 0.38 0.03 93 1011.5
20260507100038 1 0 0.0 0.0 0.00 0.38 0.03 92 1011.5
20260507094541 1 0 0.0 1.6 0.00 0.69 0.03 93 1011.2
20260507093042 1 215 0.0 3.2 0.03 0.69 0.03 92 1011.5
20260507091553 2 0 0.0 4.8 0.03 0.69 0.03 93 1011.6
20260507090051 2 220 0.0 4.8 0.03 0.69 0.03 93 1011.5
20260507084538 2 0 0.0 4.8 0.03 0.84 0.03 93 1011.3
20260507083041 2 0 0.0 0.0 0.00 0.81 0.00 93 1011.4
20260507081550 2 0 0.0 0.0 0.00 0.81 0.00 92 1011.4
20260507080037 2 0 0.0 3.2 0.00 0.81 0.00 92 1011.5
20260507074542 3 0 0.0 4.8 0.00 1.07 0.00 92 1011.3
20260507073054 3 0 0.0 4.8 0.00 1.07 0.00 92 1011.6
20260507071538 3 214 1.6 4.8 0.00 1.07 0.00 93 1011.7
20260507070058 3 0 0.0 3.2 0.00 1.07 0.00 93 1011.8
20260507064543 3 196 0.0 4.8 0.00 1.47 0.00 93 1011.7
20260507063037 3 0 0.0 0.0 0.00 1.47 0.00 92 1011.7
20260507061543 4 0 0.0 0.0 0.00 1.47 0.00 92 1011.9
20260507060037 4 0 0.0 0.0 0.00 1.47 0.00 92 1011.9
20260507054546 4 0 0.0 0.0 0.00 1.80 0.00 92 1012.1
20260507053042 4 236 0.0 4.8 0.00 1.80 0.00 92 1012.3
20260507051539 4 0 0.0 0.0 0.00 1.80 0.00 91 1012.5
20260507050037 4 0 0.0 4.8 0.00 1.80 0.00 92 1012.5
20260507044545 4 0 0.0 0.0 0.00 1.96 0.00 92 1012.6
20260507043041 4 0 0.0 3.2 0.00 1.96 0.00 92 1012.7
20260507041538 4 0 0.0 0.0 0.00 1.96 0.00 92 1012.4
20260507040038 4 0 0.0 0.0 0.00 1.96 0.00 91 1012.5
20260507034538 4 0 0.0 0.0 0.00 2.11 1.96 91 1012.2
20260507033037 4 0 0.0 0.0 0.00 2.11 1.96 91 1012.3
20260507031542 5 206 0.0 3.2 0.00 2.11 1.96 91 1012.3
20260507030041 5 0 0.0 1.6 0.00 2.11 1.96 91 1012.3
20260507024538 5 0 0.0 4.8 0.00 2.26 1.96 91 1012.0
20260507023037 5 0 0.0 6.4 0.00 2.26 1.96 91 1012.1
20260507021539 5 264 3.2 11.3 0.00 2.26 1.96 91 1012.2
20260507020040 5 0 1.6 8.0 0.00 2.26 1.96 91 1012.3
20260507014552 5 290 1.6 6.4 0.00 2.44 1.96 91 1012.5
20260507013038 5 0 0.0 6.4 0.00 2.44 1.96 90 1012.0
20260507011538 5 0 0.0 11.3 0.00 2.44 1.96 91 1012.0
20260507010038 5 296 1.6 12.9 0.00 2.44 1.96 91 1012.0
20260507004537 5 281 3.2 11.3 0.00 2.51 1.96 91 1012.0
20260507003039 5 0 3.2 17.7 0.00 2.51 1.96 91 1011.6
20260507001538 6 277 4.8 14.5 0.00 2.51 1.96 91 1011.3
20260507000042 6 288 3.2 12.9 0.00 2.51 1.96 91 1011.1
20260506234544 6 286 3.2 11.3 0.00 2.79 1.96 91 1011.2
20260506233044 6 300 6.4 17.7 0.00 2.79 1.96 90 1011.1
20260506231538 7 271 8.0 22.5 0.00 2.79 1.96 87 1010.8
20260506230039 7 317 8.0 24.1 0.00 2.79 1.96 85 1010.7
20260506224538 8 303 3.2 24.1 0.00 3.07 1.96 84 1010.3
20260506223038 8 273 8.0 17.7 0.00 3.07 1.96 84 1010.2
20260506221545 8 288 3.2 14.5 0.00 3.07 1.96 88 1009.7
20260506220038 8 213 0.0 6.4 0.00 3.07 1.96 90 1009.7
20260506214537 8 0 0.0 0.0 0.00 3.07 1.96 91 1009.6
20260506213040 8 0 0.0 0.0 0.00 3.07 1.96 92 1009.4
20260506211538 8 0 0.0 0.0 0.00 3.07 1.96 93 1009.3
20260506210038 8 0 0.0 0.0 0.00 3.07 1.96 94 1009.5
20260506204537 7 0 0.0 4.8 0.00 3.07 1.96 94 1009.6
20260506203044 7 0 0.0 1.6 0.00 3.07 1.96 95 1009.4
20260506201600 7 0 0.0 1.6 0.00 3.07 1.96 96 1009.5
20260506200040 7 0 0.0 4.8 0.00 3.07 1.96 95 1009.6
20260506194548 7 0 0.0 4.8 0.00 3.07 1.96 95 1009.7
20260506193043 7 0 0.0 4.8 0.00 3.07 1.96 95 1009.5
20260506191541 7 5 1.6 6.4 0.00 3.07 1.96 95 1009.3
20260506190037 6 360 0.0 4.8 0.00 3.07 1.96 95 1009.3
20260506184549 6 360 0.0 6.4 0.00 3.07 1.96 95 1009.4
20260506183040 6 5 0.0 4.8 0.00 3.07 1.96 95 1009.5
20260506181540 6 0 0.0 6.4 0.00 3.07 1.96 95 1009.5
20260506180038 6 0 0.0 4.8 0.00 3.07 1.96 95 1009.4
20260506174542 6 9 1.6 8.0 0.00 3.07 1.96 95 1009.3
20260506173046 6 0 0.0 4.8 0.00 3.07 1.96 95 1009.4
20260506171551 6 0 0.0 0.0 0.00 3.07 1.96 96 1009.1
20260506170040 6 0 0.0 6.4 0.00 3.07 1.96 96 1009.0
20260506164538 6 5 1.6 6.4 0.00 3.07 1.96 96 1008.8
20260506163052 6 336 0.0 6.4 0.00 3.07 1.96 96 1009.0
20260506161542 6 0 0.0 3.2 0.00 3.07 1.96 96 1008.9
20260506160037 6 0 1.6 6.4 0.00 3.07 1.96 96 1008.8
20260506154550 6 0 0.0 3.2 0.00 3.07 1.96 96 1008.9
20260506153041 6 0 0.0 0.0 0.03 3.07 1.96 96 1008.9
20260506151539 6 0 1.6 4.8 0.05 3.07 1.96 96 1008.7
20260506150039 6 0 1.6 4.8 0.05 3.07 1.96 96 1008.7
20260506144538 5 0 0.0 4.8 0.05 3.07 1.96 96 1008.5
20260506143042 5 0 0.0 1.6 0.05 3.05 1.93 96 1008.4
20260506141542 5 0 0.0 0.0 0.03 3.02 1.91 96 1008.2
20260506140047 5 56 0.0 6.4 0.05 3.02 1.91 96 1008.1
20260506134537 5 68 1.6 4.8 0.05 3.02 1.91 96 1008.1
20260506133038 5 0 0.0 6.4 0.05 2.97 1.88 96 1008.0
20260506131538 5 66 4.8 6.4 0.05 2.97 1.88 96 1008.0